Location: Newark
(52.2090°N, 4.1550°W)
Time: 12:23:59
(UTC+00:00)

Explorer 11/Cluster Stage 4 - All Passes

Search period start: 22 September 2019 00:00
Search period end: 02 October 2019 00:00
Orbit: 467 x 1260 km, 28.8° (Epoch: 21 September)

Date Brightness Start Highest point End Pass type
(mag) Time Alt. Az. Time Alt. Az. Time Alt. Az.
29 Sep - 19:40:39 10° S 19:41:36 10° S 19:42:33 10° S visible
30 Sep - 19:28:46 10° SSW 19:30:37 11° S 19:32:25 10° SSE visible
01 Oct - 19:17:19 10° SSW 19:19:37 11° S 19:21:51 10° SSE visible
